Radioactive Concentration measured by Seawater Radiation Monitor near Fukushima Daiichi Nuclear Power Station
Date,Time,Cs137(Bq/L),Cs134(Bq/L),Total β(Bq/L)
2017/09/25,00:00,0.99,0.030,ND
2017/09/25,00:10,1.0,0.031,ND
2017/09/25,00:20,1.0,0.028,ND
2017/09/25,00:30,1.0,0.027,ND
2017/09/25,00:40,0.99,0.028,ND
2017/09/25,00:50,0.98,0.037,ND
2017/09/25,01:00,0.96,0.038,ND
2017/09/25,01:10,0.95,0.042,ND
2017/09/25,01:20,0.96,0.040,ND
2017/09/25,01:30,0.95,0.039,ND
2017/09/25,01:40,0.96,0.033,ND
2017/09/25,01:50,1.0,ND,ND
2017/09/25,02:00,1.0,ND,ND
2017/09/25,02:10,1.0,ND,ND
2017/09/25,02:20,0.94,0.029,ND
2017/09/25,02:30,0.95,0.030,ND
2017/09/25,02:40,0.97,0.034,ND
2017/09/25,02:50,0.96,0.049,ND
2017/09/25,03:00,0.96,0.041,ND
2017/09/25,03:10,0.96,0.039,ND
2017/09/25,03:20,0.96,0.034,ND
2017/09/25,03:30,0.97,0.030,ND
2017/09/25,03:40,0.96,0.027,ND
2017/09/25,03:50,0.99,ND,ND
2017/09/25,04:00,0.99,ND,ND
2017/09/25,04:10,0.99,ND,ND
2017/09/25,04:20,1.0,ND,ND
2017/09/25,04:30,0.94,0.026,ND
2017/09/25,04:40,0.92,0.043,ND
2017/09/25,04:50,0.91,0.050,ND
2017/09/25,05:00,0.91,0.044,ND
2017/09/25,05:10,0.93,0.044,ND
2017/09/25,05:20,0.93,0.040,ND
2017/09/25,05:30,0.93,0.042,ND
2017/09/25,05:40,0.94,0.030,ND
2017/09/25,05:50,0.93,0.034,ND
2017/09/25,06:00,0.95,0.039,ND
2017/09/25,06:10,0.91,0.049,ND
2017/09/25,06:20,0.93,0.050,ND
2017/09/25,06:30,0.96,0.036,ND
2017/09/25,06:40,0.98,0.036,ND
2017/09/25,06:50,0.98,0.037,ND
2017/09/25,07:00,0.85,0.053,ND
2017/09/25,07:10,0.87,0.048,ND
2017/09/25,07:20,0.99,0.026,ND
2017/09/25,07:30,0.97,0.031,ND
2017/09/25,07:40,0.99,0.035,ND
2017/09/25,07:50,0.97,0.041,ND
2017/09/25,08:00,0.98,0.041,ND
2017/09/25,08:10,1.0,0.041,ND
2017/09/25,08:20,1.0,0.041,ND
2017/09/25,08:30,1.1,0.042,ND
2017/09/25,08:40,1.1,0.037,ND
2017/09/25,08:50,1.1,0.043,ND
2017/09/25,09:00,1.2,0.037,ND
2017/09/25,09:10,1.2,0.030,ND
2017/09/25,09:20,1.2,0.029,ND
2017/09/25,09:30,1.2,0.037,ND
2017/09/25,09:40,1.0,0.056,ND
2017/09/25,09:50,1.1,0.053,ND
2017/09/25,10:00,1.0,0.061,ND
2017/09/25,10:10,1.2,0.036,ND
2017/09/25,10:20,1.1,0.062,ND
2017/09/25,10:30,1.1,0.063,ND
2017/09/25,10:40,1.2,0.049,ND
2017/09/25,10:50,1.2,0.051,ND
2017/09/25,11:00,1.2,0.054,ND
2017/09/25,11:10,1.2,0.061,ND
2017/09/25,11:20,1.2,0.067,ND
2017/09/25,11:30,1.2,0.061,ND
2017/09/25,11:40,1.2,0.044,ND
2017/09/25,11:50,1.2,0.048,ND
2017/09/25,12:00,1.2,0.059,ND
2017/09/25,12:10,1.2,0.052,ND
2017/09/25,12:20,1.2,0.047,ND
2017/09/25,12:30,1.1,0.053,ND
2017/09/25,12:40,1.1,0.059,ND
2017/09/25,12:50,0.92,0.080,ND
2017/09/25,13:00,0.91,0.070,ND
2017/09/25,13:10,1.0,0.044,ND
2017/09/25,13:20,1.0,0.036,ND
2017/09/25,13:30,1.0,ND,ND
2017/09/25,13:40,0.98,0.031,ND
2017/09/25,13:50,1.0,ND,ND
2017/09/25,14:00,1.0,ND,ND
2017/09/25,14:10,0.99,0.027,ND
2017/09/25,14:20,0.98,0.031,ND
2017/09/25,14:30,0.99,0.033,ND
2017/09/25,14:40,0.98,0.028,ND
2017/09/25,14:50,0.96,0.026,9.5
2017/09/25,15:00,0.99,ND,10
2017/09/25,15:10,0.94,0.026,ND
2017/09/25,15:20,0.96,ND,ND
2017/09/25,15:30,0.92,0.033,ND
2017/09/25,15:40,0.95,0.032,ND
2017/09/25,15:50,0.94,0.040,ND
2017/09/25,16:00,0.97,0.038,ND
2017/09/25,16:10,0.99,0.033,ND
2017/09/25,16:20,0.98,0.041,ND
2017/09/25,16:30,0.88,0.068,ND
2017/09/25,16:40,0.97,0.031,ND
2017/09/25,16:50,0.97,0.036,ND
2017/09/25,17:00,0.95,0.033,ND
2017/09/25,17:10,0.96,0.028,ND
2017/09/25,17:20,1.0,ND,ND
2017/09/25,17:30,1.0,ND,ND
2017/09/25,17:40,1.0,ND,ND
2017/09/25,17:50,1.1,ND,ND
2017/09/25,18:00,1.0,0.040,ND
2017/09/25,18:10,1.0,0.039,ND
2017/09/25,18:20,1.0,0.047,ND
2017/09/25,18:30,1.0,0.056,ND
2017/09/25,18:40,1.0,0.059,ND
2017/09/25,18:50,1.0,0.054,ND
2017/09/25,19:00,1.0,0.052,ND
2017/09/25,19:10,1.0,0.052,ND
2017/09/25,19:20,1.1,0.053,ND
2017/09/25,19:30,1.1,0.044,ND
2017/09/25,19:40,1.1,0.029,ND
2017/09/25,19:50,1.1,ND,ND
2017/09/25,20:00,1.2,ND,ND
2017/09/25,20:10,1.1,ND,ND
2017/09/25,20:20,1.2,ND,ND
2017/09/25,20:30,1.2,ND,ND
2017/09/25,20:40,1.0,0.053,ND
2017/09/25,20:50,1.0,0.058,ND
2017/09/25,21:00,1.0,0.062,ND
2017/09/25,21:10,1.0,0.083,ND
2017/09/25,21:20,0.99,0.094,ND
2017/09/25,21:30,1.0,0.085,ND
2017/09/25,21:40,1.2,0.058,ND
2017/09/25,21:50,1.1,0.057,ND
2017/09/25,22:00,1.1,0.046,ND
2017/09/25,22:10,1.1,0.029,ND
2017/09/25,22:20,1.0,0.038,ND
2017/09/25,22:30,0.98,0.044,ND
2017/09/25,22:40,0.95,0.050,ND
2017/09/25,22:50,1.1,0.035,ND
2017/09/25,23:00,1.1,0.036,ND
2017/09/25,23:10,1.1,0.032,ND
2017/09/25,23:20,1.1,0.034,ND
2017/09/25,23:30,0.99,0.061,ND
2017/09/25,23:40,1.1,0.030,ND
2017/09/25,23:50,1.0,0.060,ND
